Voltar ao catálogo

ARIANE 1 DEB

LostGTO
NORAD 26683·DEBRIS·🇫🇷 France

Lançado Jul 2, 1985 de Guiana Space Centre

Loading…

TLE

ObsoletoSource: Space-Track

Época: May 25, 2026, 00:32 UTC

1 26683U 85056H   26145.02269272 -.00001169  00000-0 -48152-1 0  9997
2 26683   6.2366 358.9734 7091181 207.4310 354.7739  2.22741287110389

Acompanhe ARIANE 1 DEB em tempo real com AllMySat

Download on the App Store